Tracking 25710 objects as of 6-Jul-2022
HD Live streaming from Space Station
objects crossing your sky now

HAWK-5C

Track HAWK-5C now!
10-day predictions


NORAD ID: 52754
Int'l Code: 2022-057Y
Perigee: 527.3 km
Apogee: 543.6 km
Inclination: 97.5 °
Period: 95.2 minutes
Semi major axis: 6906 km
RCS: Unknown
Launch date: May 25, 2022
Source: United States (US)
Launch site: AIR FORCE EASTERN TEST RANGE (AFETR)
aabbcc
Your satellite tracking list
Your tracking list is empty




NASA's NSSDC Master Catalog

Two Line Element Set (TLE):
1 52754U 22057Y   22186.83377010  .00002439  00000-0  14329-3 0  9997
2 52754  97.5286 301.3295 0011775  98.5624 261.6942 15.12590094  6215
Source of the keplerian elements: AFSPC